Tracking 28790 objects as of 19-Apr-2024
HD Live streaming from Space Station
objects crossing your sky now

COSMOS 646

Track COSMOS 646 now!
10-day predictions
COSMOS 646 is classified as:


NORAD ID: 7270
Int'l Code: 1974-024F
Perigee: 1,410.3 km
Apogee: 1,491.3 km
Inclination: 74.0 °
Period: 114.7 minutes
Semi major axis: 7821 km
RCS: 0.7128 m2 (medium)
Launch date: April 23, 1974
Source: Commonwealth of Independent States (former USSR) (CIS)
Launch site: PLESETSK MISSILE AND SPACE COMPLEX (PKMTR)
Your satellite tracking list
Your tracking list is empty




NASA's NSSDC Master Catalog

Two Line Element Set (TLE):
1 07270U 74024F   24109.81987656 -.00000002  00000-0  83707-4 0  9991
2 07270  74.0196  50.2908 0051785 172.1151 253.9809 12.55006436290158
Source of the keplerian elements: AFSPC